Flag for United Kingdom

Past Weather in Salisbury, England, United Kingdom — Yesterday and Last 2 Weeks

Now
59 °F

Light rain. Broken clouds.


Feels Like: 56 °F
Forecast: 56 / 46 °F
Wind: 14 mph from Southwest

Location: Boscombe Down
Current Time: Sep 23, 2020 at 12:16:17 pm
Latest Report: Sep 23, 2020 at 11:20 am
Visibility: N/A
Pressure29.53 "Hg
Humidity: 94%
Dew Point: 57 °F
Location of SalisburyLocation

Past Weather in Salisbury — Graph

°F

Salisbury Temperature Yesterday

Maximum temperature yesterday: 68 °F (at 11:50 am)
Minimum temperature yesterday: 50 °F (at 6:50 am)
Average temperature yesterday: 59 °F

High & Low Weather Summary for the Past Weeks

 TemperatureHumidityPressure
High81 °F (Sep 14, 2:50 pm)100% (Sep 8, 11:50 pm)30.36 "Hg (Sep 8, 11:50 pm)
Low46 °F (Sep 11, 5:50 am)37% (Sep 14, 2:21 pm)29.53 "Hg (Sep 23, 10:50 am)
Average62 °F75%30.10 "Hg
* Reported Sep 8 10:20 am — Sep 23 10:50 am, Salisbury. Weather by CustomWeather, © 2020

Note: Actual official high and low records may vary slightly from our data, if they occured in-between our weather recording intervals... More about our weather records

Salisbury Weather History for the Previous 24 Hours

Scroll right to see more
 ConditionsComfort  
Time TempWeatherWind HumidityBarometerVisibility
10:50 am
Wed, Sep 23
59 °FLight rain. Partly sunny.8 mph94%29.53 "Hg6 mi
10:20 am59 °FBroken clouds.12 mph94%29.56 "HgN/A
9:50 am59 °FScattered clouds.13 mph94%29.56 "HgN/A
9:20 am59 °FMostly cloudy.13 mph94%29.56 "HgN/A
8:50 am57 °FLow clouds.10 mph100%29.56 "HgN/A
8:20 am57 °FBroken clouds.6 mph94%29.56 "HgN/A
7:50 am57 °FLight rain. Broken clouds.6 mph100%29.56 "Hg5 mi
7:23 am57 °FBroken clouds.6 mph100%29.56 "HgN/A
7:08 am57 °FFog.6 mph100%29.56 "Hg4 mi
6:50 am57 °FFog.5 mph100%29.56 "Hg2 mi
5:50 am57 °FPassing clouds.6 mph100%29.56 "Hg2 mi
4:50 am57 °FPassing clouds.8 mph100%29.59 "HgN/A
3:50 am57 °FPassing clouds.7 mph100%29.59 "HgN/A
2:50 am59 °FHeavy rain. Passing clouds.8 mph94%29.59 "Hg1 mi
1:50 am59 °FPartly cloudy.5 mph100%29.62 "Hg2 mi
12:50 am59 °FFog.7 mph94%29.65 "Hg3 mi
11:50 pm
Tue, Sep 22
57 °FFog.N/A100%29.65 "Hg3 mi
10:50 pm57 °FFog.7 mph100%29.68 "Hg3 mi
9:50 pm57 °FFog.3 mph94%29.68 "Hg3 mi
8:50 pm59 °FPartly cloudy.6 mph94%29.71 "Hg5 mi
7:50 pm61 °FPartly cloudy.7 mph88%29.71 "Hg6 mi
6:50 pm61 °FPartly sunny.9 mph94%29.71 "HgN/A
5:50 pm61 °FDrizzle. Mostly cloudy.12 mph94%29.71 "HgN/A
5:09 pm61 °FDrizzle. Broken clouds.12 mph94%29.74 "Hg6 mi
4:59 pm61 °FDrizzle. Mostly cloudy.10 mph94%29.74 "Hg3 mi
4:50 pm61 °FDrizzle. Mostly cloudy.10 mph94%29.74 "Hg3 mi
4:20 pm63 °FRain. Mostly cloudy.13 mph83%29.74 "HgN/A
3:50 pm63 °FPartly sunny.16 mph83%29.77 "HgN/A
3:39 pm63 °FBroken clouds.15 mph83%29.77 "HgN/A
2:50 pm64 °FPartly sunny.15 mph83%29.77 "HgN/A
2:20 pm64 °FPartly sunny.15 mph78%29.80 "HgN/A
1:50 pm66 °FPartly sunny.17 mph73%29.80 "HgN/A
1:20 pm68 °FPartly sunny.16 mph69%29.80 "HgN/A
12:50 pm66 °FPartly sunny.14 mph73%29.80 "HgN/A
12:22 pm66 °FScattered clouds.15 mph78%29.83 "HgN/A
Weather by CustomWeather, © 2020

See weather overview